Tracking 19176 objects as of 27-May-2018
HD Live streaming from Space Station
objects crossing your sky now

BREEZE-M DEB (TANK)

Track BREEZE-M DEB (TANK) now!
10-day predictions


NORAD ID: 31103
Int'l Code: 2007-009B
Perigee: 302.4 km
Apogee: 16,815.6 km
Inclination: 49.5 °
Period: 302.6 minutes
Semi major axis: 14929 km
RCS: 7.0331 m2 (large)
Launch date: April 9, 2007
Source: Commonwealth of Independent States (former USSR) (CIS)
Launch site: TYURATAM MISSILE AND SPACE COMPLEX (TTMTR)

Note: This is SATELLITE DEBRIS
aabbcc
Your satellite tracking list
Your tracking list is empty




NASA's NSSDC Master Catalog

Two Line Element Set (TLE):
1 31103U 07009B   18146.80231555 +.00001017 +00000-0 +19963-3 0  9993
2 31103 049.4893 010.4078 5530185 144.3491 269.8777 04.75897101189095
Source of the keplerian elements: AFSPC